Location: Bad Salzschlirf
(50.3750°N, 9.3000°E)
Time: 17:59:40
(UTC+01:00)

ISS - Pass Details

Date: 22 January 2020
Orbit: 415 x 421 km, 51.6° (Epoch: 18 January)

Event Time Altitude Azimuth Distance (km) Brightness Sun altitude
Rises 18:22:45 0° 204° (SSW) 2,353 0.7 -13.2°
Reaches altitude 10° 18:25:17 10° 185° (S) 1,492 -0.7 -13.6°
Maximum altitude 18:27:36 18° 141° (SE) 1,119 -1.8 -14.0°
Enters shadow 18:28:17 17° 125° (SE) 1,156 -1.9 -14.1°
